User: anonymous   Login
Location: Unspecified
(0.0000°N, 0.0000°E)
Time: 20:45:44
(UTC+01:00)
Language:

Helios 1A Rocket - Orbit

View from above orbital plane
View from above orbital plane
View from above satellite
View from above satellite

Ground track
Ground track

The orbit data is extracted from the following two-line orbital elements,

1 23608U 95033D   17055.18927668  .00000742  00000-0  71586-4 0  9998
2 23608  98.2179 341.8205 0015636 267.2297  92.7133 14.96132294170864
Epoch (UTC): 24 February 2017 04:32:33
Eccentricity: 0.0015636
inclination: 98.2179°
perigee height: 568 km
apogee height: 590 km
right ascension of ascending node: 341.8205°
argument of perigee: 267.2297°
revolutions per day: 14.96132294
mean anomaly at epoch: 92.7133°
orbit number at epoch: 17086

The dashed part of the orbit path shows where the satellite is in the earth's shadow,  

DLR